Home   Weather   Boa Vista   Past weeks
Flag for Brazil

Past Weather in Boa Vista, Roraima, Brazil — Yesterday and Last 2 Weeks

Now
84 °F

Clear.


Feels Like: 90 °F
Forecast: N/A
Wind: 5 mph from East

Location: Boa Vista Aeropor-To

Current Time: Jun 24, 2019 at 7:52:00 pm

Latest Report: Jun 24, 2019 at 7:00 pm


Visibility: 10 mi

Pressure: 29.83 "Hg

Humidity: 66%

Dew Point: 72 °F

Location of Boa VistaLocation

Past Weather in Boa Vista — Graph

°F

Boa Vista Temperature Yesterday

Maximum temperature yesterday: 90 °F (at 3:00 pm)
Minimum temperature yesterday: 39 °F (at 5:15 am)
Average temperature yesterday: 79 °F

High & Low Weather Summary for the Past Weeks

 TemperatureHumidityPressure
High95 °F (Jun 19, 5:00 am)100% (Jun 23, 5:15 am)30.04 "Hg (Jun 23, 5:15 am)
Low39 °F (Jun 23, 5:15 am)44% (Jun 20, 2:00 pm)29.83 "Hg (Jun 10, 5:00 pm)
Average81 °F78%29.94 "Hg
* Reported Jun 9 6:00 pm — Jun 24 6:00 pm, Boa Vista. Weather by CustomWeather, © 2019

Note: Actual official high and low records may vary slightly from our data, if they occured in-between our weather recording intervals... More about our weather records

Advertising

Boa Vista Weather History for the Previous 24 Hours

Scroll right to see more
 ConditionsComfort  
Time TempWeatherWind HumidityBarometerVisibility
6:00 pm
Mon, Jun 24
86 °FSunny.6 mph62%29.83 "Hg10 mi
5:00 pm88 °FScattered clouds.6 mph55%29.83 "HgN/A
4:00 pm88 °FScattered clouds.8 mph55%29.83 "HgN/A
3:00 pm88 °FScattered clouds.7 mph55%29.86 "HgN/A
2:00 pm88 °FBroken clouds.8 mph59%29.89 "HgN/A
1:00 pm88 °FBroken clouds.7 mph59%29.92 "HgN/A
12:00 pm84 °FBroken clouds.5 mph66%29.95 "HgN/A
11:00 am84 °FPartly sunny.6 mph66%29.95 "HgN/A
10:00 am82 °FScattered clouds.3 mph74%29.98 "HgN/A
9:00 am79 °FBroken clouds.5 mph84%29.98 "HgN/A
8:00 am75 °FBroken clouds.5 mph94%29.98 "HgN/A
7:00 am75 °FBroken clouds.3 mph89%29.95 "HgN/A
6:00 am75 °FLight rain. Broken clouds.5 mph89%29.95 "HgN/A
5:00 am75 °FRain. Partly cloudy.6 mph89%29.92 "HgN/A
4:00 am75 °FRain. Passing clouds.10 mph89%29.95 "Hg3 mi
3:00 am77 °FLight rain. Partly cloudy.8 mph89%29.95 "HgN/A
2:26 am75 °FPartly cloudy.8 mph94%29.92 "HgN/A
2:00 am77 °FRain. Partly cloudy.8 mph89%29.92 "Hg2 mi
1:27 am77 °FPassing clouds.7 mph89%29.92 "HgN/A
1:00 am75 °FRain. Partly cloudy.14 mph94%29.92 "Hg3 mi
12:43 am77 °FRain. Passing clouds.14 mph89%29.92 "Hg2 mi
12:00 am79 °FLight rain. Passing clouds.3 mph84%29.92 "HgN/A
11:25 pm
Sun, Jun 23
79 °FRain. Passing clouds.5 mph84%29.95 "Hg4 mi
11:00 pm79 °FClear.3 mph84%29.95 "Hg10 mi
10:00 pm79 °FClear.7 mph84%29.92 "Hg10 mi
9:00 pm84 °FClear.2 mph70%29.92 "Hg10 mi
8:00 pm84 °FClear.3 mph70%29.89 "Hg10 mi
7:00 pm86 °FClear.3 mph62%29.89 "Hg10 mi
Weather by CustomWeather, © 2019

See weather overview